QTR22U VAPO-VABB

Flight info

Callsign QTR22U
Flight time N/A
Altitude 18000
Route PPN W28 BBB
Aircraft A332/H-SDE3GHIJ2J3J5M1RVWXY/LB2D1

Departure

Time 2026-04-28 14:00
Airport Pune International Airport (VAPO)

Arrival

Time N/A
Airport Chhatrapati Shivaji Maharaj International Airport (VABB)
Time Latitude Longitude Altitude Speed Heading
2026-04-28 13:45 18.58548 73.92022 1952 ft 0 kts 45°
2026-04-28 13:47 18.58538 73.92012 1952 ft 3 kts 46°
2026-04-28 13:47 18.58525 73.91997 1954 ft 3 kts 46°
2026-04-28 13:48 18.58512 73.91983 1955 ft 3 kts 46°
2026-04-28 13:48 18.58510 73.91980 1956 ft 0 kts 46°
2026-04-28 13:50 18.58548 73.92022 1956 ft 0 kts 45°
2026-04-28 13:52 18.58547 73.92022 1952 ft 1 kts 45°
2026-04-28 13:52 18.58537 73.92004 1954 ft 3 kts 98°
2026-04-28 13:52 18.58544 73.91985 1955 ft 0 kts 151°
2026-04-28 13:54 18.58537 73.91989 1953 ft 5 kts 151°
2026-04-28 13:54 18.58482 73.92038 1952 ft 14 kts 124°
2026-04-28 13:55 18.58438 73.92165 1953 ft 22 kts 96°
2026-04-28 13:55 18.58548 73.92022 1952 ft 0 kts 45°
2026-04-28 13:56 18.58542 73.92017 1952 ft 2 kts 51°
2026-04-28 13:56 18.58535 73.92002 1954 ft 2 kts 97°
2026-04-28 13:56 18.58530 73.92003 1956 ft 7 kts 121°
2026-04-28 13:56 18.58441 73.92127 1953 ft 25 kts 123°
2026-04-28 13:57 18.58401 73.92278 1957 ft 17 kts 140°
2026-04-28 13:57 18.58309 73.92280 1954 ft 24 kts 186°
2026-04-28 13:57 18.58212 73.92310 1953 ft 11 kts 110°
2026-04-28 13:57 18.58196 73.92506 1956 ft 43 kts 95°
2026-04-28 13:58 18.58185 73.92843 1958 ft 45 kts 89°
2026-04-28 13:58 18.58178 73.93071 1959 ft 28 kts 92°
2026-04-28 13:58 18.58156 73.93229 1959 ft 3 kts 128°
2026-04-28 13:58 18.58146 73.93226 1959 ft 1 kts 199°
2026-04-28 13:59 18.58145 73.93217 1959 ft 1 kts 256°
2026-04-28 13:59 18.58151 73.93129 1959 ft 44 kts 274°
2026-04-28 13:59 18.58198 73.92438 1958 ft 140 kts 271°
2026-04-28 13:59 18.58252 73.91174 2230 ft 197 kts 272°
2026-04-28 14:00 18.58362 73.89590 2802 ft 234 kts 276°
2026-04-28 14:00 18.58561 73.87766 3762 ft 263 kts 277°
2026-04-28 14:00 18.58640 73.85777 5217 ft 272 kts 271°
2026-04-28 14:00 18.58646 73.83842 6809 ft 261 kts 272°
2026-04-28 14:01 18.58654 73.81935 8279 ft 257 kts 271°
2026-04-28 14:01 18.58684 73.80022 9151 ft 275 kts 271°
2026-04-28 14:01 18.58879 73.77955 9934 ft 292 kts 287°
2026-04-28 14:01 18.59886 73.75996 10445 ft 320 kts 305°
2026-04-28 14:02 18.61118 73.73908 10826 ft 350 kts 300°
2026-04-28 14:02 18.62391 73.71640 11551 ft 363 kts 300°
2026-04-28 14:02 18.63673 73.69353 12808 ft 359 kts 300°
2026-04-28 14:02 18.64943 73.67087 13944 ft 360 kts 301°
2026-04-28 14:03 18.66222 73.64798 14860 ft 363 kts 300°
2026-04-28 14:03 18.67506 73.62499 15754 ft 366 kts 301°
2026-04-28 14:03 18.68777 73.60197 16605 ft 369 kts 301°
2026-04-28 14:03 18.70065 73.57821 17353 ft 376 kts 301°
2026-04-28 14:04 18.71349 73.55408 17734 ft 378 kts 300°
2026-04-28 14:04 18.72640 73.52986 17835 ft 379 kts 300°
2026-04-28 14:04 18.73925 73.50553 17994 ft 380 kts 301°
2026-04-28 14:04 18.75199 73.48103 18501 ft 382 kts 300°
2026-04-28 14:05 18.76487 73.45654 19083 ft 382 kts 300°
2026-04-28 14:05 18.77797 73.43212 19557 ft 383 kts 300°
2026-04-28 14:05 18.79123 73.40771 19780 ft 384 kts 301°
2026-04-28 14:05 18.80461 73.38323 19767 ft 383 kts 301°
2026-04-28 14:06 18.81788 73.35884 19224 ft 383 kts 300°
2026-04-28 14:06 18.83209 73.33516 18796 ft 378 kts 308°
2026-04-28 14:06 18.84904 73.31445 18626 ft 366 kts 314°
2026-04-28 14:06 18.86619 73.29584 18406 ft 350 kts 316°
2026-04-28 14:07 18.88311 73.27814 17984 ft 335 kts 316°
2026-04-28 14:07 18.89963 73.26115 17313 ft 329 kts 316°
2026-04-28 14:07 18.91601 73.24444 16582 ft 325 kts 316°
2026-04-28 14:07 18.93220 73.22799 15842 ft 322 kts 316°
2026-04-28 14:08 18.94822 73.21174 15192 ft 317 kts 316°
2026-04-28 14:08 18.96400 73.19576 14582 ft 311 kts 315°
2026-04-28 14:08 18.97954 73.18002 13869 ft 310 kts 315°
2026-04-28 14:08 18.99507 73.16426 13116 ft 308 kts 315°
2026-04-28 14:09 19.01047 73.14864 12399 ft 306 kts 315°
2026-04-28 14:09 19.02573 73.13317 11741 ft 301 kts 314°
2026-04-28 14:09 19.04075 73.11792 11074 ft 298 kts 314°
2026-04-28 14:09 19.05561 73.10284 10552 ft 291 kts 314°
2026-04-28 14:10 19.06978 73.08849 10314 ft 274 kts 314°
2026-04-28 14:10 19.08310 73.07500 10109 ft 257 kts 314°
2026-04-28 14:10 19.09628 73.06291 9885 ft 247 kts 325°
2026-04-28 14:10 19.11223 73.05660 9482 ft 247 kts 354°
2026-04-28 14:11 19.12873 73.05991 9069 ft 247 kts 26°
2026-04-28 14:11 19.14110 73.07218 8654 ft 246 kts 60°
2026-04-28 14:11 19.14514 73.08947 8199 ft 246 kts 95°
2026-04-28 14:11 19.13967 73.10638 7729 ft 246 kts 126°
2026-04-28 14:12 19.12826 73.12011 7079 ft 254 kts 134°
2026-04-28 14:12 19.11614 73.13431 6325 ft 266 kts 129°
2026-04-28 14:12 19.10478 73.15057 5479 ft 283 kts 123°
2026-04-28 14:12 19.09425 73.16937 4954 ft 315 kts 116°
2026-04-28 14:13 19.08644 73.19182 4772 ft 340 kts 102°
2026-04-28 14:13 19.08094 73.21644 4772 ft 347 kts 107°
2026-04-28 14:13 19.06838 73.23810 4793 ft 348 kts 134°
2026-04-28 14:13 19.04838 73.25202 4799 ft 346 kts 160°
2026-04-28 14:14 19.02477 73.25573 4796 ft 343 kts 186°
2026-04-28 14:14 19.00224 73.24836 4812 ft 340 kts 213°
2026-04-28 14:14 18.98535 73.23118 4987 ft 341 kts 240°
2026-04-28 14:14 18.97761 73.20771 5469 ft 337 kts 266°
2026-04-28 14:15 18.97987 73.18394 5744 ft 314 kts 291°
2026-04-28 14:15 18.99077 73.16523 5799 ft 290 kts 312°
2026-04-28 14:15 19.00419 73.15023 5722 ft 273 kts 315°
2026-04-28 14:15 19.01722 73.13640 5362 ft 259 kts 316°
2026-04-28 14:16 19.03026 73.12397 4843 ft 253 kts 321°
2026-04-28 14:16 19.04381 73.11231 4281 ft 250 kts 321°
2026-04-28 14:16 19.05699 73.10033 3649 ft 250 kts 319°
2026-04-28 14:16 19.06988 73.08788 3062 ft 250 kts 317°
2026-04-28 14:17 19.08246 73.07515 2762 ft 250 kts 313°
2026-04-28 14:17 19.09081 73.05916 2702 ft 251 kts 285°
2026-04-28 14:17 19.09245 73.04078 2714 ft 253 kts 269°
2026-04-28 14:17 19.09143 73.02217 2636 ft 253 kts 268°
2026-04-28 14:18 19.09066 73.00430 2391 ft 233 kts 270°
2026-04-28 14:18 19.09051 72.98777 2064 ft 217 kts 269°
2026-04-28 14:18 19.09030 72.97230 1779 ft 203 kts 270°
2026-04-28 14:18 19.09006 72.95787 1511 ft 189 kts 268°
2026-04-28 14:19 19.08986 72.94448 1278 ft 176 kts 269°
2026-04-28 14:19 19.08966 72.93209 1052 ft 165 kts 269°
2026-04-28 14:19 19.08951 72.92029 865 ft 159 kts 269°
2026-04-28 14:19 19.08933 72.90867 668 ft 156 kts 270°
2026-04-28 14:20 19.08924 72.89716 585 ft 164 kts 272°
2026-04-28 14:20 19.09312 72.88412 955 ft 208 kts 298°
2026-04-28 14:20 19.10313 72.87116 1384 ft 248 kts 316°
2026-04-28 14:20 19.11713 72.85889 2113 ft 263 kts 316°
2026-04-28 14:21 19.13111 72.84545 3049 ft 282 kts 322°
2026-04-28 14:21 19.14946 72.83576 3910 ft 314 kts 343°
2026-04-28 14:21 19.17199 72.83200 4840 ft 337 kts 354°
2026-04-28 14:21 19.19601 72.83188 5925 ft 357 kts
2026-04-28 14:22 19.22027 72.83992 6585 ft 387 kts 25°
2026-04-28 14:22 19.24188 72.85606 6816 ft 371 kts 43°
2026-04-28 14:22 19.25646 72.87786 6781 ft 351 kts 64°
2026-04-28 14:22 19.26225 72.90191 6814 ft 333 kts 84°
2026-04-28 14:23 19.26285 72.92569 6810 ft 314 kts 89°
2026-04-28 14:23 19.26252 72.94823 6744 ft 300 kts 90°
2026-04-28 14:23 19.26204 72.96990 6619 ft 289 kts 90°
2026-04-28 14:23 19.26148 72.99074 6499 ft 278 kts 90°
2026-04-28 14:24 19.26082 73.01082 6383 ft 268 kts 90°
2026-04-28 14:24 19.26019 73.03022 6280 ft 259 kts 90°
2026-04-28 14:24 19.25954 73.04903 6027 ft 257 kts 90°
2026-04-28 14:24 19.25886 73.06837 5419 ft 270 kts 90°
2026-04-28 14:25 19.25811 73.08873 4766 ft 283 kts 90°
2026-04-28 14:25 19.25729 73.10995 4150 ft 292 kts 90°
2026-04-28 14:25 19.25624 73.13145 3841 ft 292 kts 93°
2026-04-28 14:25 19.25252 73.15232 3689 ft 287 kts 107°
2026-04-28 14:26 19.24342 73.17108 3310 ft 291 kts 127°
2026-04-28 14:26 19.22835 73.18582 2831 ft 297 kts 144°
2026-04-28 14:26 19.21089 73.19513 3048 ft 269 kts 163°
2026-04-28 14:26 19.19282 73.19865 2914 ft 264 kts 178°
2026-04-28 14:27 19.17450 73.19817 2597 ft 265 kts 186°
2026-04-28 14:27 19.15704 73.19359 2521 ft 253 kts 207°
2026-04-28 14:27 19.14286 73.18294 2123 ft 253 kts 225°
2026-04-28 14:27 19.13243 73.16825 1968 ft 244 kts 244°
2026-04-28 14:28 19.12640 73.15140 1506 ft 249 kts 257°
2026-04-28 14:28 19.12359 73.13416 1700 ft 223 kts 264°
2026-04-28 14:28 19.12227 73.11802 1365 ft 225 kts 267°
2026-04-28 14:28 19.12069 73.10214 1277 ft 213 kts 263°
2026-04-28 14:29 19.11835 73.08632 677 ft 230 kts 260°
2026-04-28 14:29 19.11490 73.06968 395 ft 207 kts 258°
2026-04-28 14:29 19.11238 73.05972 1493 ft 121 kts 248°
2026-04-28 14:29 19.10840 73.05107 448 ft 61 kts 62°